FENGYUN 1C DEB

Satellite information

Favourite Embed

Satellite Type and Status

DEBRISIN ORBIT

Key statistics

Satellite FENGYUN 1C DEB at a glance.

Uptime

9554

Days in orbit

Revolutions

≈ 14.5

Per day

Orbit

SSO

Sun Synchronous Orbit

Inclination

98.9

Latest

Satellite identification and parameters

Extended collection of information and parameters for FENGYUN 1C DEB.

Object identification

Identified? True

Debris? True

Object name: FENGYUN 1C DEB

International designator: 1999-025KF

Object number (NORAD): 29957

Object ID (CCSDS): 29957

Country: PEOPLES REPUBLIC OF CHINA (PRC)

Current information (Y/N): Y

RCS size: SMALL

Orbital parameters

Period: 99.648 minutes

Inclination: 98.9206 deg

SMA: 7119.862 km

Apoapsis: 768.463 km

Periapsis: 714.991 km

RAAN: 304.6035 deg

Eccentricy: 0.0037551

Argument of periapsis: 293.3951 deg

Mean anomaly: 129.1247 deg

Mean motion: 14.45091738 rev/day

Mean motion (dot): 0.00008929 rev/day2

B* drag term: 0.002543 1/REarth

Two-line elements (TLE)

Creation date: July 5, 2025, 5:45 p.m.

Reference frame: TEME

Reference center: EARTH

Epoch: July 5, 2025, 7:59 a.m. UTC

TLE line 0: 0 FENGYUN 1C DEB

TLE line 1: 1 29957U 99025KF 25186.33303446 .00008929 00000-0 25430-2 0 9999

TLE line 2: 2 29957 98.9206 304.6035 0037551 293.3951 129.1247 14.45091738951713

Live tracking on map

Real-time ground track for satellite FENGYUN 1C DEB.

In-orbit conjunctions

A list of the most updated potential collisions computed for object FENGYUN 1C DEB.

Target Orbit TCA Probability of collision Miss distance Type
COSMOS 858 LEO 2025-02-19 18:50:54 0.0002120133 373.0 (m) PAYLOAD
IRIDIUM 914 LEO 2024-12-15 05:42:10 0.0001379058 321.0 (m) PAYLOAD
DMSP 5D-2 F13 DEB SSO 2024-07-07 12:01:29 0.0001405687 262.0 (m) DEBRIS

Associated space launch

Chinese polar orbiting meteorological satellite

FENGYUN 1C DEB was lifted into orbit during the mission ‘Long March 4B | Feng Yun 1C’, on board a Long March 4B space rocket.

The launch took place on May 10, 1999, 1:33 a.m. from Launch Complex 7.

For more information about the launch, click the button.

Launch to space Long March 4B | Feng Yun 1C
Long March 4B | Feng Yun 1C

Agency: N/A

Status: Launch Successful

Launch date: May 10, 1999, 1:33 a.m. UTC

Rocket: Long March 4B

Launch pad: Launch Complex 7

Location: Taiyuan Satellite Launch Center, People's Republic of China

...

Latest news about this satellite

There are no fresh news available about this satellite. Check back as we update our databases every day.


Newsletter sign-up

Weekly statistics, charts and insights to help you stay on top of the space industry.